CAPE
604 821 1142 1401 1594 950 603 412 57 0 0 0 0 0 17 196 656 205 0 0 0 0 23 383 1373 842 794 1429 1725 1785 1648 1321 983 959 1619 1691 1726 1736 1834 1814 2005 1972 2040 2170 1989 2117 2063 2120 1815
677 727 1475 1522 1097 772 654 202 27 2 0 0 0 12 344 753 0 0 0 0 0 0 67 202 1654 1286 1132 1099 1406 1422 1458 1534 1517 1204 1340 1716 1816 1758 1780 1717 1901 2061 2042 2108 1818 1751 1695 1743 1866
646 1259 1669 1143 721 840 748 520 359 37 0 152 242 58 386 166 0 0 0 0 0 2 133 818 1542 1356 1431 1538 1589 1668 1438 1192 1484 1220 1271 1613 1855 1808 1849 1757 1691 1910 1968 2067 1448 1551 1422 1832 1909
724 1665 1154 1109 601 687 733 725 300 131 0 8 269 359 102 43 0 0 0 0 0 15 277 907 1711 1244 1234 1393 1348 1460 1352 1073 1313 1205 1427 1488 1770 1837 1857 1894 1877 1827 1461 1503 1382 1259 1686 1852 1832
1358 1273 651 545 630 602 723 644 590 437 165 32 197 190 4 1 0 0 0 0 3 9 345 1036 1574 1373 1643 1544 1369 1326 1573 1181 1212 1414 1151 1696 1666 1846 1905 1756 1700 1921 1726 1829 1812 1669 1861 1818 1783
979 674 520 498 649 592 627 632 555 479 286 171 190 70 17 7 0 0 0 4 14 232 475 968 1393 1590 1384 1459 1397 1495 1564 1429 1204 1410 1448 1686 1666 1519 1788 1771 1880 1774 1572 1859 1668 1644 1530 1577 1639
874 581 405 288 412 588 696 644 421 435 359 264 118 36 8 0 0 0 0 143 285 366 530 432 934 1240 1191 1216 1084 1465 1353 1627 1251 1154 1374 1769 1491 1461 1540 1445 1526 1651 1685 1469 1476 1524 1291 1339 1394
727 723 349 294 260 442 630 559 400 463 461 79 29 4 7 0 0 5 43 200 306 399 487 560 632 1180 1407 1137 833 1393 1521 1585 1197 1085 1411 1398 1032 1307 1278 1420 1190 1535 1589 1602 1415 1219 1260 1352 1438
527 710 372 315 281 592 592 614 557 453 188 272 153 7 0 11 21 69 226 343 515 420 222 394 660 1059 1421 1633 1686 1680 1587 1368 1113 1291 1406 911 1425 1283 571 360 526 913 1429 1705 1363 1324 1598 1530 1373
587 426 339 328 415 524 619 611 532 552 396 431 283 18 10 15 72 145 148 370 447 385 171 377 440 677 1354 1319 1794 1941 1834 1620 1549 703 1280 1561 1418 430 729 299 196 972 1192 1590 1377 1797 1445 1144 1280
202 313 276 325 552 498 622 660 585 571 535 548 428 114 26 7 56 96 73 420 290 290 222 467 926 821 925 1127 1530 1083 972 1087 1387 1205 1397 1222 1827 1009 755 997 1131 1653 1436 1625 1719 574 527 1082 1440
272 169 187 312 402 565 656 746 578 614 738 407 550 121 18 18 35 12 170 283 228 314 284 493 734 1265 1086 1133 979 993 827 789 822 1078 1090 1232 812 1158 960 874 924 980 1746 1154 799 422 410 572 1361
296 244 241 267 338 657 594 754 810 734 627 437 461 52 17 1 16 41 135 159 91 312 362 469 642 1127 1290 1465 1186 1001 962 876 919 818 902 797 661 1168 1653 1139 1075 941 843 894 800 552 390 421 620
227 246 388 604 378 728 773 763 654 618 524 572 476 119 1 0 46 174 91 33 59 169 241 362 559 1190 1223 1517 1759 1686 1369 1148 1106 1254 1283 1129 1867 1834 1588 1225 611 594 624 467 671 849 991 452 247
244 627 1034 758 546 745 847 540 756 558 521 586 373 223 35 0 50 77 43 25 30 114 76 349 495 950 1170 1390 1659 1498 1372 1295 1625 1807 1635 1826 1507 1652 1762 1788 1199 468 547 1004 922 1109 1115 936 788
329 666 916 1091 1021 808 499 791 739 573 538 537 370 468 227 149 44 30 64 26 0 29 76 135 141 307 787 1201 1421 1348 1357 1261 1345 1454 1705 1824 1504 1492 1723 917 1393 816 971 802 589 1156 949 963 1064
84 119 340 914 916 777 660 1112 777 508 486 452 443 542 421 183 14 174 95 2 10 43 142 236 431 493 938 1508 1491 1603 1680 2374 2179 1996 1733 1919 1688 1750 1359 1022 1310 1554 608 343 371 1098 1226 1349 1054
25 28 43 415 710 769 896 1164 790 483 338 346 674 581 441 24 73 383 155 132 3 0 59 306 669 1006 1358 1438 1871 1553 1550 1673 1535 1860 1583 2637 2307 2085 1860 1295 1447 1320 1297 632 531 1026 1415 1394 739
78 54 29 27 84 721 1068 1117 757 671 407 280 472 433 460 275 102 40 77 405 32 0 2 96 281 1142 1633 1568 1441 1323 1135 981 895 1354 1234 2263 2175 2317 2313 1938 1628 1320 914 1120 1087 900 1190 1504 879
28 68 35 24 118 863 1086 915 1006 833 625 292 269 389 352 355 259 360 428 627 317 15 0 15 347 1418 1887 1429 1440 1212 1096 595 612 836 2064 1789 2321 2593 2482 2324 1840 1653 1446 1370 860 1206 1371 1549 1754
4 1 42 195 493 875 1148 1221 1314 1167 854 560 277 257 345 415 317 621 766 814 714 104 185 60 969 1508 1899 1552 1655 1845 1638 1414 544 375 2088 1388 1962 2757 2470 2579 2085 2163 1875 2261 1286 1239 1192 595 263
5 0 6 397 648 468 919 857 1673 1497 1357 938 559 313 277 403 473 574 671 731 651 703 934 915 1001 1517 1725 1869 1657 1914 1454 747 742 883 1449 1957 2184 1975 2572 2850 2556 2376 2372 1787 1677 1336 1423 984 399
24 1 32 282 253 304 1058 548 1436 1465 1489 1355 882 515 299 340 448 507 513 522 498 487 752 1129 1437 1552 1696 1618 2034 1792 1834 1076 1158 1010 2088 2343 2588 2107 1446 2244 2696 2330 1590 1720 1782 1411 1530 1611 1391
17 146 306 313 209 298 266 376 655 1234 1386 1287 992 748 487 314 349 424 535 521 501 443 341 523 1031 1358 1617 1703 1766 2067 2008 1549 1129 928 1045 1320 1646 2021 1786 2560 2663 2050 836 1663 1998 1841 1212 1307 572
85 250 96 146 217 180 158 454 294 947 917 1007 924 778 753 502 406 404 393 403 513 517 529 411 560 1077 1271 1244 1272 1420 1811 1875 1910 1690 938 926 854 2554 1944 2805 2632 2085 1812 1320 1063 1582 362 1125 1036
80 42 36 40 67 138 352 218 685 585 787 828 827 730 757 781 615 479 435 382 339 355 443 498 501 875 978 1276 1428 1699 1845 1505 1539 1205 1067 988 448 530 2321 2121 2335 1759 852 846 71 125 1326 1724 1904
54 11 5 19 25 78 173 193 521 459 684 1019 928 965 1062 1023 917 775 642 545 415 345 338 382 482 751 1214 1291 1732 1752 1982 1919 1230 1242 1425 896 691 509 1308 2219 2197 1881 1247 779 420 787 1580 1742 1989
1 4 33 67 155 158 196 115 168 669 806 1286 1182 1340 1430 1395 1350 1209 1035 954 850 581 534 500 714 1060 1311 998 1080 1268 1420 1818 1765 1728 1660 1338 1027 724 1001 1434 2184 2256 1460 1501 1096 1188 1193 1603 2027
4 14 11 40 49 92 127 160 221 652 853 1067 1334 1412 1562 1663 1600 1543 1462 1403 1290 1076 976 854 921 1175 1387 1214 937 965 1114 1202 1369 1174 1073 1315 1322 1113 2047 2428 2482 2531 2909 2678 2161 1931 2297 2385 2482
15 77 58 146 175 128 106 158 618 589 480 838 1178 1254 1220 1599 1663 1698 1652 1638 1610 1594 1379 1203 1124 1194 1197 1246 1316 1127 1226 1139 829 915 912 1282 1278 1730 2515 2560 2833 2930 2583 3292 3334 3169 2516 2671 2435
CIN
-35 -2 0 0 0 0 -2 0 -13 0 0 0 0 0 -1 -8 -1 -11 0 0 0 0 -23 -2 0 0 0 0 0 0 0 -1 -1 -1 -2 0 0 0 0 0 0 0 0 0 0 0 0 0 0
-6 -5 0 0 0 0 0 -1 -5 -2 0 0 0 -27 -2 0 0 0 0 0 0 0 -13 -4 -1 0 0 0 0 0 0 0 -3 -2 -3 -1 0 0 0 0 0 0 0 0 0 0 0 0 0
-28 -1 0 0 0 0 0 0 0 -26 0 -11 -10 -56 -9 -43 0 0 0 0 0 0 -4 0 0 0 0 -2 0 0 0 -2 -2 -4 -3 0 0 0 0 0 0 0 0 0 0 0 0 0 0
-16 0 -5 0 0 0 0 0 -2 -14 0 -30 -3 -11 -62 -85 0 0 0 0 0 -5 0 -7 0 0 0 0 0 0 0 0 0 -2 0 -1 0 0 0 0 0 0 0 0 0 -1 0 0 0
0 -2 0 0 0 0 0 0 0 0 -14 -28 -12 -33 -33 0 0 0 0 0 -9 -5 0 0 0 0 0 -1 -1 -3 -1 0 0 0 -17 0 -1 0 0 0 0 0 0 0 0 0 0 -1 -3
-1 -28 0 0 0 0 0 0 0 0 -1 -36 -27 -51 -63 0 0 0 0 0 -27 0 0 0 -2 -1 0 0 -4 -2 0 0 0 -4 -2 0 -3 -4 -1 0 0 0 -4 -1 0 0 -2 -1 -1
-10 0 0 0 0 0 0 0 0 0 0 0 -23 -71 -59 0 0 0 0 -4 0 0 0 0 0 -1 -5 -2 -8 -4 -1 -4 -2 -7 -2 0 -5 -3 -2 -4 -4 0 0 -1 -5 -5 -7 -6 -8
-22 -1 0 0 -2 0 0 0 0 0 0 -21 -33 -35 -164 0 0 -115 -72 -4 -1 -3 0 0 0 0 0 -3 -5 -3 -2 -5 -2 -2 0 0 -1 0 -8 -7 -1 -3 0 0 0 -4 -9 -10 -6
-75 0 0 0 -2 0 0 0 -4 -3 -27 -5 -29 -30 0 -155 -149 -73 -13 -11 0 -1 -1 0 0 0 0 0 0 0 -5 -2 -6 -1 -1 -20 -10 -13 -27 -52 -36 -6 -4 0 0 -2 -7 -8 -8
-25 0 0 -3 0 0 0 0 -8 -3 -5 -17 -22 -64 -92 -123 -71 -40 -22 -5 -1 0 -1 0 0 0 0 0 0 0 0 0 0 0 0 -1 -1 -19 -24 -54 -63 -6 -9 0 0 -5 -13 -9 0
-24 -1 -14 -13 -7 -2 0 0 0 0 0 -1 -22 -52 -101 -110 -60 -54 -45 -5 0 -2 -5 0 0 0 0 0 0 0 0 0 0 0 0 0 0 -4 0 -12 -8 -8 -5 0 -3 -42 -18 -11 -2
-14 -38 -31 -28 -22 -1 0 0 -1 0 -2 -3 -14 -51 -85 -91 -54 -81 -10 -66 -13 0 -4 0 0 0 0 0 0 0 0 0 0 0 0 0 0 -12 -21 -16 -12 -1 -2 0 0 -1 -14 -48 -1
-27 -29 -43 -40 -19 -1 -3 0 0 -2 -14 -14 -32 -85 -62 -29 -45 -72 -1 -6 -23 -4 -3 -3 -6 0 0 0 0 0 0 0 0 0 0 0 0 -1 -2 -15 0 0 0 0 0 0 -1 -2 0
-41 -49 -35 -20 -18 -9 -2 -3 0 -13 -25 -13 -16 -68 -99 0 -22 -105 -9 -29 -27 -6 -8 -5 -8 -2 -1 0 0 0 0 0 0 0 0 0 0 -1 -5 0 0 0 0 0 0 0 0 -1 -3
-62 -13 -6 -12 -11 -6 -5 -7 -4 -15 -9 -6 -11 -19 -52 -62 -3 -15 -31 -42 -63 -10 -33 -8 -3 -3 -3 0 0 0 0 0 -1 -2 -4 0 -4 0 -1 0 0 0 0 0 0 0 0 0 0
-15 -8 0 -8 -9 -12 -4 -8 -17 -13 0 -1 -1 0 -5 -43 -4 -14 -23 -76 -9 -67 -36 -22 -24 -12 -10 0 0 0 0 0 0 0 -2 -2 -2 -2 0 0 -1 0 0 0 0 0 0 0 0
-22 0 -2 -12 -16 -16 0 -3 -26 -21 -1 0 0 0 0 -16 -1 -11 -8 -72 -129 -77 -28 -61 -15 -2 0 -1 0 0 0 0 -2 -1 -1 -4 -1 -1 0 0 0 0 0 0 0 0 0 0 0
-38 -25 -34 -7 -13 -11 -1 -3 -43 -45 -25 -18 0 0 0 -37 -43 -28 -109 -24 -88 0 -42 -21 -1 0 0 0 0 0 0 0 0 -1 -3 -3 0 -2 0 0 0 0 0 0 0 0 0 0 0
-61 -45 -32 -42 -74 -22 0 -7 -50 -49 -51 -54 -10 0 0 0 -16 -136 -97 0 -17 0 -54 -37 -19 -1 0 0 0 0 0 0 0 0 -10 0 -8 -2 0 0 0 0 -1 0 0 0 0 0 0
-78 -44 -24 -63 -79 -27 -12 -16 -37 -59 -56 -77 -73 -38 -12 -1 -4 -5 -5 0 -3 -40 0 -100 -27 -8 -6 0 0 0 0 -1 -2 -2 0 -2 -1 -9 0 -1 0 0 0 0 -4 0 0 -2 -2
-24 -9 -20 -11 -46 -32 -20 -18 -42 -50 -58 -67 -100 -98 -64 -19 -10 0 0 0 0 -9 -36 -63 -16 -7 -7 -3 0 -6 -3 -13 -18 -14 -1 -8 -2 -1 -10 -3 0 0 0 0 0 0 0 -10 -24
0 0 -57 -32 -6 0 -14 0 -33 -43 -42 -60 -85 -126 -128 -72 -32 -1 0 0 0 0 0 -7 -12 -10 -4 -3 0 0 0 -1 0 -4 0 0 -2 -1 0 0 0 0 0 0 0 0 0 0 -10
-53 -20 -54 -28 -4 -9 -14 -2 -14 -35 -45 -46 -61 -90 -142 -150 -97 -50 -15 -1 0 -3 0 0 -4 -8 -9 -10 -7 0 -1 0 0 -1 -2 -2 -4 -5 -2 -1 0 0 -14 -4 0 0 0 0 -1
-109 -47 -38 -23 -6 0 -4 -4 0 -17 -26 -40 -58 -70 -114 -164 -170 -124 -60 -23 -4 0 -64 -28 -7 -18 -17 -12 -14 -8 -1 0 -1 -3 0 0 0 0 -3 -2 -6 -12 -54 -1 0 0 -3 -2 -35
-47 -3 0 0 0 0 -13 -6 0 -15 -40 -37 -51 -70 -86 -125 -163 -166 -153 -118 -48 -22 -42 -47 -70 -34 -29 -22 -26 -22 -16 -7 -1 0 0 -3 0 -1 -2 -3 -1 0 -10 -12 -18 -1 -69 -1 -1
-9 0 0 0 0 -1 -17 0 -2 -54 -48 -48 -64 -77 -80 -94 -102 -146 -152 -157 -146 -112 -65 -64 -76 -63 -57 -46 -27 -27 -20 -7 -1 -1 -4 0 0 0 -3 -10 -18 -40 -71 -93 -286 -213 -6 0 0
-3 -2 0 0 -3 -1 0 -1 -67 -95 -86 -65 -50 -60 -63 -66 -60 -80 -106 -111 -152 -146 -149 -128 -113 -101 -72 -52 -33 -26 -19 -19 -2 -9 -19 -15 -26 -24 -23 -24 -17 -30 -69 -131 -176 -63 -2 0 0
-5 -8 -3 -2 0 0 0 -7 0 -45 -76 -78 -61 -48 -30 -26 -33 -37 -52 -64 -103 -120 -134 -135 -129 -99 -72 -67 -55 -48 -44 -35 -36 -37 -39 -37 -43 -71 -46 -32 -17 -24 -81 -82 -114 -68 -59 -25 -1
-2 0 -1 -1 0 0 0 0 -14 -35 -46 -66 -70 -51 -19 -14 -21 -29 -43 -45 -82 -94 -95 -107 -126 -103 -89 -97 -105 -97 -88 -78 -83 -79 -88 -72 -63 -82 -26 -15 -12 -11 -4 -15 -41 -37 -5 -12 -6
-10 0 -1 0 0 0 -5 0 -91 -96 -60 -59 -47 -53 -37 -11 -14 -35 -35 -43 -63 -78 -79 -87 -94 -96 -87 -82 -95 -103 -106 -114 -112 -132 -122 -107 -94 -61 -15 -14 -13 -5 -12 0 0 -1 -1 -4 -7
Wind_Speed
12 11 3 4 6 4 7 7 13 16 15 6 14 4 8 10 7 7 15 11 18 15 15 13 9 11 10 8 9 9 10 9 8 6 8 9 11 11 12 13 14 14 15 18 16 16 16 15 16
6 4 5 3 4 7 7 12 14 9 11 17 10 9 3 7 6 13 15 16 17 15 15 14 11 10 11 8 9 9 9 9 8 9 7 10 11 12 13 13 14 15 14 16 16 14 15 15 14
5 5 5 4 1 5 9 9 13 14 19 11 6 8 2 4 7 17 17 20 16 13 12 15 11 10 9 8 9 9 8 8 6 7 7 9 10 12 13 13 15 15 14 14 15 13 14 13 13
5 5 4 4 9 11 12 13 16 15 14 4 9 8 6 3 17 10 20 18 15 14 11 14 11 10 8 6 8 9 9 8 7 7 8 9 10 10 12 13 14 14 14 13 14 13 13 12 12
4 5 3 3 10 13 9 13 12 13 11 10 4 7 9 11 9 19 18 16 15 13 13 14 9 8 7 7 7 8 9 9 8 7 7 10 10 11 12 12 11 12 13 13 14 13 12 13 11
5 5 3 7 11 12 10 9 8 9 11 10 11 12 7 11 17 18 17 15 13 12 12 14 9 6 4 5 7 8 9 9 8 8 9 10 10 10 10 10 11 11 12 13 12 11 10 9 8
5 2 6 11 12 11 11 8 7 8 10 8 13 8 9 16 17 17 15 13 12 11 10 9 12 8 5 3 4 9 11 10 8 9 9 10 9 10 9 9 9 11 12 12 11 10 7 6 4
6 4 5 6 10 10 10 7 7 6 7 12 11 8 11 19 18 15 13 13 10 9 10 7 5 8 6 5 8 11 11 10 11 13 14 14 11 8 11 13 6 7 11 11 10 9 6 5 7
3 5 7 7 8 8 12 9 6 4 12 3 3 10 19 21 13 15 14 11 10 8 9 9 9 7 10 9 11 12 12 12 14 13 16 13 6 5 8 12 9 1 8 10 9 7 7 9 12
5 3 7 5 5 6 11 8 10 9 12 8 10 14 22 23 20 17 15 14 14 11 9 7 8 9 11 8 9 9 8 7 7 8 8 6 8 8 6 10 6 3 8 10 8 8 6 3 5
2 6 4 5 6 5 11 8 7 11 9 11 16 21 24 22 19 17 11 14 13 12 8 9 7 6 7 8 8 6 6 6 7 8 6 8 4 4 6 4 2 1 7 6 6 3 4 2 3
3 2 1 4 4 6 9 9 3 4 9 10 15 22 23 24 20 17 16 14 13 11 10 10 9 7 6 5 4 4 5 5 5 7 9 7 6 4 4 3 4 6 4 5 6 5 6 3 4
4 5 1 4 3 7 8 5 8 5 3 11 17 19 22 21 18 13 15 14 13 13 12 10 9 8 7 5 4 5 4 4 5 7 6 5 7 6 5 4 6 4 4 5 5 5 4 4 5
7 4 2 6 8 9 10 8 3 7 7 14 18 18 17 19 19 15 13 13 13 12 13 12 11 9 8 5 5 4 3 4 3 3 5 5 4 6 4 5 7 7 4 4 3 3 4 4 4
4 4 8 9 12 9 12 8 9 9 10 14 16 15 18 17 18 17 15 14 10 12 13 13 11 11 8 6 5 3 4 4 2 2 3 5 4 5 6 4 6 5 3 4 4 5 4 5 5
5 5 6 9 8 7 8 8 9 10 11 14 15 17 18 18 18 15 13 12 12 4 13 12 9 10 9 6 5 3 3 2 2 2 6 5 3 4 7 5 4 2 4 4 3 2 4 4 4
5 4 4 8 7 7 9 8 10 10 9 11 15 17 15 16 15 14 14 9 10 13 13 13 10 10 9 6 4 4 2 4 2 0 4 6 5 5 2 4 4 5 4 4 4 1 2 3 5
6 3 2 2 9 8 6 7 13 12 10 10 16 17 16 18 17 14 8 16 13 13 13 11 10 9 6 4 4 4 3 3 2 2 1 4 4 4 4 3 3 6 4 4 4 3 3 5 4
8 7 4 4 3 7 7 10 13 13 11 11 14 16 17 17 18 11 15 14 16 16 14 13 12 10 8 7 5 4 5 3 3 3 2 4 6 6 5 4 6 6 3 4 4 5 5 2 1
6 5 4 4 3 8 5 8 12 13 13 13 14 16 17 19 16 18 18 16 17 16 14 14 14 12 9 6 5 4 2 3 3 2 3 3 5 7 5 3 4 5 5 5 4 6 5 3 3
9 5 6 4 9 4 6 10 13 13 12 13 14 15 17 18 21 20 19 19 17 16 15 15 14 13 11 9 6 3 3 3 4 4 3 3 4 5 5 4 2 4 4 4 6 6 6 2 3
11 5 3 9 11 1 11 3 16 17 16 15 15 16 16 19 19 18 19 20 18 16 15 15 15 13 11 9 7 7 5 4 2 3 2 3 3 2 4 5 4 4 3 3 4 5 4 5 4
6 2 5 7 8 4 12 8 11 15 15 17 17 17 17 18 19 20 19 19 18 15 14 15 14 13 12 10 10 7 8 5 4 2 2 4 3 3 3 4 4 4 1 4 4 3 4 4 6
4 6 6 5 6 7 7 6 10 11 17 18 18 18 18 18 19 18 19 19 17 17 14 14 15 14 12 11 11 12 11 8 5 3 4 4 4 2 1 2 4 4 4 4 1 1 2 4 5
12 13 4 5 6 7 3 6 7 9 5 18 20 19 18 18 19 19 20 19 18 19 18 17 13 15 13 12 12 12 12 10 8 6 5 5 4 3 3 3 5 5 3 3 1 4 6 8 9
13 9 8 4 2 7 4 3 8 6 8 12 19 19 19 19 18 19 19 18 18 19 18 18 17 16 15 14 13 11 11 8 9 9 6 6 5 3 2 3 4 6 5 6 6 5 9 9 9
9 9 6 7 4 9 5 3 11 7 8 12 20 20 19 19 18 19 19 18 17 18 18 17 15 14 15 16 13 13 11 11 9 7 7 7 6 6 6 5 5 6 8 8 6 6 7 8 9
9 4 8 7 3 5 5 4 5 7 12 13 18 20 19 19 18 16 16 17 16 17 17 17 17 17 16 16 15 13 13 12 12 11 11 10 9 7 8 8 7 8 9 9 9 8 8 9 9
7 10 7 8 6 11 8 3 11 7 10 16 16 17 18 18 18 16 15 15 15 14 15 16 17 17 16 15 14 14 12 13 12 11 11 10 10 7 8 8 8 9 9 11 9 9 8 10 11
9 10 9 6 3 3 8 6 7 4 6 11 15 16 17 17 17 16 15 14 14 14 14 14 14 14 14 13 12 13 12 10 11 11 11 10 9 8 9 9 9 9 10 9 12 11 10 12 12
Wind_Direction
183 197 213 216 226 215 88 83 107 112 122 127 131 162 92 18 349 54 136 144 137 144 135 154 139 140 143 137 132 127 125 126 149 128 121 111 107 105 103 110 106 106 107 106 101 99 95 90 92
169 173 218 240 251 142 89 115 114 114 121 129 118 114 107 78 67 126 135 150 145 142 146 145 147 151 150 150 136 136 130 126 139 135 130 112 112 111 107 109 106 110 110 110 106 105 99 97 94
200 248 254 267 237 75 110 128 112 112 135 128 112 76 11 60 130 144 130 144 150 143 146 114 150 150 151 144 148 147 141 128 117 122 132 127 117 116 112 112 115 114 113 109 111 110 102 95 94
223 205 208 251 101 76 113 127 126 129 150 104 127 84 90 217 139 138 144 147 148 146 143 129 151 152 152 158 173 165 151 138 124 127 138 131 126 117 117 116 111 120 120 119 114 109 103 101 104
219 250 210 117 92 106 112 125 144 143 147 150 171 95 110 134 126 139 146 155 148 149 129 145 150 149 154 168 168 162 152 147 143 128 139 132 133 123 117 121 118 118 119 118 121 121 119 112 99
242 272 118 95 94 117 125 140 133 130 134 133 122 114 104 133 149 150 153 153 145 144 151 128 135 149 147 187 181 161 162 154 152 134 138 125 132 120 116 121 112 118 114 113 117 116 114 118 120
297 285 60 85 109 111 137 135 139 136 155 149 140 102 125 150 151 153 154 143 141 145 129 140 146 138 154 187 191 152 153 151 146 120 111 115 111 108 109 110 117 122 121 120 113 113 106 110 130
289 277 138 93 87 102 132 155 101 138 96 115 153 147 168 152 156 140 160 135 151 148 139 128 110 106 84 102 144 148 141 126 113 116 117 102 99 100 91 61 66 127 133 126 125 115 108 99 106
305 230 85 80 72 124 145 128 78 72 135 132 121 141 153 138 153 163 148 152 156 166 147 148 147 135 98 100 118 126 120 119 121 125 127 129 131 110 95 76 21 148 137 132 131 121 100 107 108
273 18 51 44 70 116 160 141 138 154 150 127 124 117 141 153 167 151 172 162 159 158 158 126 133 123 119 112 109 111 107 118 108 133 128 132 153 144 119 130 177 280 142 133 126 105 102 196 110
343 40 61 85 21 163 154 141 144 144 176 159 145 145 153 154 162 166 188 168 154 159 146 136 110 128 127 116 156 138 151 144 133 138 156 132 133 144 147 145 181 238 173 138 115 67 83 20 78
255 38 7 100 54 132 148 130 129 163 48 148 149 155 158 167 168 172 181 169 151 156 152 135 135 134 108 131 127 140 124 135 157 138 153 142 152 153 136 140 165 178 178 174 155 156 145 143 134
300 42 188 156 125 114 127 126 93 70 53 138 145 160 167 174 160 175 175 161 160 162 152 151 141 149 139 168 129 149 126 161 117 162 157 173 144 162 150 170 174 189 191 162 174 156 152 161 150
352 313 268 191 162 134 129 124 190 84 126 140 149 170 168 179 166 173 167 166 169 163 155 147 156 153 149 147 153 155 161 122 176 147 138 179 151 149 157 183 186 183 197 141 138 160 164 185 184
287 152 129 109 155 152 140 104 91 115 131 136 166 161 168 191 171 176 173 170 163 179 156 152 160 163 166 167 182 198 160 178 151 205 163 165 201 165 152 171 231 163 156 167 173 191 192 214 203
216 219 168 136 154 149 244 104 131 140 142 151 161 172 179 177 175 173 167 178 185 170 163 164 170 171 167 161 185 217 185 216 241 167 195 163 153 177 158 156 199 143 179 218 209 213 210 215 213
204 102 108 155 193 162 234 119 152 160 154 157 164 178 177 174 177 180 181 149 173 200 170 174 177 181 169 166 211 222 220 268 271 289 212 148 163 160 167 188 153 182 191 201 226 239 221 215 199
329 340 119 151 165 206 180 112 160 169 161 172 171 178 185 177 185 184 191 196 183 195 185 187 178 183 186 183 220 226 218 242 275 60 358 166 137 157 198 174 176 207 197 217 216 210 240 242 159
304 280 252 175 159 204 204 148 169 173 171 171 182 178 184 192 182 184 191 195 195 197 188 187 193 196 197 194 208 201 229 209 249 188 169 187 162 174 185 174 175 216 199 250 209 221 205 282 167
277 242 211 130 180 235 166 157 165 181 184 179 189 188 189 179 202 190 204 207 196 190 189 194 207 199 203 200 215 240 243 254 289 277 159 201 197 188 188 187 178 201 184 223 268 241 249 123 351
113 6 156 123 156 217 182 177 183 184 194 183 190 196 197 193 188 190 198 198 192 188 189 196 202 203 207 219 205 210 256 246 237 217 170 228 225 220 201 198 206 177 237 187 219 229 242 152 169
82 11 186 157 199 131 213 39 189 186 196 195 192 193 197 199 201 194 193 193 198 191 190 199 207 211 210 210 225 225 255 265 44 248 228 223 233 224 190 223 208 210 242 219 217 215 250 213 211
33 195 190 194 228 232 177 256 98 179 197 197 199 190 195 194 200 199 198 198 197 201 192 202 203 213 222 209 237 232 236 253 233 221 231 252 255 244 245 199 195 214 197 301 254 231 230 224 255
162 161 159 194 262 230 58 275 154 176 216 195 186 188 189 192 197 203 199 200 200 197 173 209 204 209 215 215 213 231 258 263 270 238 266 247 243 200 163 190 153 177 187 224 245 298 275 270 227
222 221 177 222 200 44 77 241 26 181 185 184 180 183 184 188 189 199 201 204 202 202 198 203 201 216 216 218 225 227 236 246 255 255 251 321 269 151 197 190 183 173 163 170 177 207 219 234 253
214 276 306 247 284 64 142 291 88 75 153 174 171 179 179 184 188 195 198 200 203 208 208 208 205 213 217 220 219 223 229 227 229 225 274 284 298 286 122 225 171 179 182 181 186 203 230 224 231
154 231 342 283 194 258 76 136 130 155 147 184 172 174 179 186 190 190 192 197 200 200 210 211 209 208 215 213 214 213 214 225 246 246 251 259 263 263 221 230 208 195 209 220 228 245 237 251 240
274 358 216 209 236 291 98 285 63 151 170 174 176 179 181 185 187 187 192 191 195 199 203 206 206 210 210 213 209 215 215 215 221 230 241 258 268 259 258 237 221 202 226 235 229 227 231 245 247
166 216 229 308 294 310 285 38 63 109 173 178 178 189 185 187 189 190 189 187 193 199 199 205 206 210 209 212 216 214 218 219 224 238 242 248 243 234 245 244 238 229 220 225 236 244 240 223 236
291 301 284 268 197 252 312 321 94 87 166 172 182 185 191 189 187 184 188 190 193 202 202 203 203 209 211 210 207 212 216 230 236 231 241 237 236 221 233 241 239 231 231 238 227 230 225 227 235